Time,TemperatureF,DewpointF,PressureIn,WindDirection,WindDirectionDegrees,WindSpeedMPH,WindSpeedGustMPH,Humidity,HourlyPrecipIn,Conditions,Clouds,dailyrainin,SoftwareType,DateUTC
2013-01-25 00:00:00,16.2,-2.8,30.38,North,0,4.0,4.0,42,0.00,,CLR,0.00,VWS V14.01,2013-01-25 05:00:00,
2013-01-25 00:01:00,16.2,-2.8,30.38,WNW,297,4.0,8.0,42,0.00,,CLR,0.00,VWS V14.01,2013-01-25 05:01:00,
2013-01-25 00:03:00,16.2,-2.4,30.38,NW,320,0.0,0.0,43,0.00,,CLR,0.00,VWS V14.01,2013-01-25 05:03:00,
2013-01-25 00:08:00,16.1,-2.5,30.38,NNW,347,0.0,1.0,43,0.00,,CLR,0.00,VWS V14.01,2013-01-25 05:08:00,
2013-01-25 00:13:00,15.9,-2.2,30.38,North,0,0.0,0.0,44,0.00,,CLR,0.00,VWS V14.01,2013-01-25 05:13:00,
2013-01-25 00:18:00,15.7,-1.9,30.38,NW,305,2.0,5.0,45,0.00,,CLR,0.00,VWS V14.01,2013-01-25 05:18:00,
2013-01-25 00:23:00,15.6,-2.4,30.38,North,358,0.0,4.0,44,0.00,,CLR,0.00,VWS V14.01,2013-01-25 05:23:00,
2013-01-25 00:28:00,15.4,-2.1,30.38,NW,326,0.0,0.0,45,0.00,,CLR,0.00,VWS V14.01,2013-01-25 05:28:00,
2013-01-25 00:33:00,15.4,-2.6,30.38,NNW,329,0.0,0.0,44,0.00,,CLR,0.00,VWS V14.01,2013-01-25 05:33:00,
2013-01-25 00:38:00,15.2,-2.3,30.38,NW,319,0.0,0.0,45,0.00,,CLR,0.00,VWS V14.01,2013-01-25 05:38:00,
2013-01-25 00:43:00,15.1,-2.4,30.38,NW,310,0.0,0.0,45,0.00,,CLR,0.00,VWS V14.01,2013-01-25 05:43:00,
2013-01-25 00:48:00,14.8,-2.2,30.38,WNW,294,3.0,4.0,46,0.00,,CLR,0.00,VWS V14.01,2013-01-25 05:48:00,
2013-01-25 00:53:00,14.9,-2.6,30.37,North,355,1.0,1.0,45,0.00,,CLR,0.00,VWS V14.01,2013-01-25 05:53:00,
2013-01-25 00:58:00,14.8,-2.2,30.37,North,355,0.0,1.0,46,0.00,,CLR,0.00,VWS V14.01,2013-01-25 05:58:00,
2013-01-25 01:03:00,14.8,-1.8,30.37,NNW,335,0.0,0.0,47,0.00,,CLR,0.00,VWS V14.01,2013-01-25 06:03:00,
2013-01-25 01:08:00,14.6,-2.0,30.38,NNW,346,0.0,0.0,47,0.00,,CLR,0.00,VWS V14.01,2013-01-25 06:08:00,
2013-01-25 01:13:00,14.4,-2.1,30.38,North,354,1.0,3.0,47,0.00,,CLR,0.00,VWS V14.01,2013-01-25 06:13:00,
2013-01-25 01:18:00,14.4,-1.7,30.38,NW,309,1.0,5.0,48,0.00,,CLR,0.00,VWS V14.01,2013-01-25 06:18:00,
2013-01-25 01:23:00,14.4,-1.7,30.37,NW,319,3.0,3.0,48,0.00,,CLR,0.00,VWS V14.01,2013-01-25 06:23:00,
2013-01-25 01:28:00,14.3,-1.8,30.37,NNW,333,1.0,6.0,48,0.00,,CLR,0.00,VWS V14.01,2013-01-25 06:28:00,
2013-01-25 01:33:00,14.4,-1.7,30.37,NW,310,5.0,5.0,48,0.00,,CLR,0.00,VWS V14.01,2013-01-25 06:33:00,
2013-01-25 01:38:00,14.4,-1.7,30.38,NNW,347,1.0,4.0,48,0.00,,CLR,0.00,VWS V14.01,2013-01-25 06:38:00,
2013-01-25 01:43:00,14.3,-1.8,30.38,WNW,302,0.0,1.0,48,0.00,,CLR,0.00,VWS V14.01,2013-01-25 06:43:00,
2013-01-25 01:48:00,14.3,-1.8,30.38,WNW,297,0.0,0.0,48,0.00,,CLR,0.00,VWS V14.01,2013-01-25 06:48:00,
2013-01-25 01:53:00,14.1,-1.5,30.38,NW,317,0.0,0.0,49,0.00,,CLR,0.00,VWS V14.01,2013-01-25 06:53:00,
2013-01-25 01:58:00,14.1,-1.5,30.38,NW,322,1.0,5.0,49,0.00,,CLR,0.00,VWS V14.01,2013-01-25 06:58:00,
2013-01-25 02:03:00,14.1,-1.5,30.38,NW,314,7.0,7.0,49,0.00,,CLR,0.00,VWS V14.01,2013-01-25 07:03:00,
2013-01-25 02:08:00,14.1,-2.0,30.37,North,354,5.0,8.0,48,0.00,,CLR,0.00,VWS V14.01,2013-01-25 07:08:00,
2013-01-25 02:13:00,14.1,-2.0,30.37,WSW,240,0.0,6.0,48,0.00,,CLR,0.00,VWS V14.01,2013-01-25 07:13:00,
2013-01-25 02:18:00,14.1,-2.0,30.37,NW,316,0.0,0.0,48,0.00,,CLR,0.00,VWS V14.01,2013-01-25 07:18:00,
2013-01-25 02:23:00,14.0,-2.1,30.38,West,276,0.0,1.0,48,0.00,,CLR,0.00,VWS V14.01,2013-01-25 07:23:00,
2013-01-25 02:28:00,14.0,-2.1,30.38,WNW,290,0.0,0.0,48,0.00,,CLR,0.00,VWS V14.01,2013-01-25 07:28:00,
2013-01-25 02:33:00,13.8,-1.4,30.38,WNW,291,0.0,2.0,50,0.00,,CLR,0.00,VWS V14.01,2013-01-25 07:33:00,
2013-01-25 02:38:00,13.6,-1.2,30.37,WNW,298,0.0,0.0,51,0.00,,CLR,0.00,VWS V14.01,2013-01-25 07:38:00,
2013-01-25 02:43:00,13.6,-1.6,30.37,WNW,291,0.0,0.0,50,0.00,,CLR,0.00,VWS V14.01,2013-01-25 07:43:00,
2013-01-25 02:48:00,13.6,-1.6,30.37,WNW,295,0.0,2.0,50,0.00,,CLR,0.00,VWS V14.01,2013-01-25 07:48:00,
2013-01-25 02:53:00,13.6,-1.6,30.38,WNW,290,0.0,1.0,50,0.00,,CLR,0.00,VWS V14.01,2013-01-25 07:53:00,
2013-01-25 02:58:00,13.6,-1.2,30.38,NW,315,1.0,1.0,51,0.00,,CLR,0.00,VWS V14.01,2013-01-25 07:58:00,
2013-01-25 03:03:00,13.6,-1.2,30.38,NNW,329,2.0,7.0,51,0.00,,CLR,0.00,VWS V14.01,2013-01-25 08:03:00,
2013-01-25 03:08:00,13.5,-1.2,30.37,NW,317,7.0,7.0,51,0.00,,CLR,0.00,VWS V14.01,2013-01-25 08:08:00,
2013-01-25 03:13:00,13.6,-1.2,30.37,NNW,338,4.0,7.0,51,0.00,,CLR,0.00,VWS V14.01,2013-01-25 08:13:00,
2013-01-25 03:18:00,13.5,-1.2,30.37,NW,305,0.0,0.0,51,0.00,,CLR,0.00,VWS V14.01,2013-01-25 08:18:00,
2013-01-25 03:23:00,13.5,-1.7,30.37,West,277,0.0,4.0,50,0.00,,CLR,0.00,VWS V14.01,2013-01-25 08:23:00,
2013-01-25 03:28:00,13.5,-1.7,30.37,WSW,241,0.0,0.0,50,0.00,,CLR,0.00,VWS V14.01,2013-01-25 08:28:00,
2013-01-25 03:33:00,13.3,-1.4,30.37,North,358,0.0,0.0,51,0.00,,CLR,0.00,VWS V14.01,2013-01-25 08:33:00,
2013-01-25 03:38:00,12.9,-1.4,30.37,North,358,0.0,0.0,52,0.00,,CLR,0.00,VWS V14.01,2013-01-25 08:38:00,
2013-01-25 03:43:00,12.8,-1.5,30.37,WNW,300,0.0,0.0,52,0.00,,CLR,0.00,VWS V14.01,2013-01-25 08:43:00,
2013-01-25 03:48:00,12.6,-1.7,30.37,WNW,300,0.0,0.0,52,0.00,,CLR,0.00,VWS V14.01,2013-01-25 08:48:00,
2013-01-25 03:53:00,12.6,-1.3,30.37,WNW,300,1.0,2.0,53,0.00,,CLR,0.00,VWS V14.01,2013-01-25 08:53:00,
2013-01-25 03:58:00,12.3,-0.8,30.37,NW,317,0.0,2.0,55,0.00,,CLR,0.00,VWS V14.01,2013-01-25 08:58:00,
2013-01-25 04:03:00,12.3,-1.2,30.37,NNW,345,0.0,0.0,54,0.00,,CLR,0.00,VWS V14.01,2013-01-25 09:03:00,
2013-01-25 04:08:00,12.4,-1.1,30.36,WSW,245,2.0,2.0,54,0.00,,CLR,0.00,VWS V14.01,2013-01-25 09:08:00,
2013-01-25 04:13:00,12.6,-0.9,30.36,West,259,4.0,5.0,54,0.00,,CLR,0.00,VWS V14.01,2013-01-25 09:13:00,
2013-01-25 04:18:00,12.6,-0.9,30.36,WNW,300,1.0,2.0,54,0.00,,CLR,0.00,VWS V14.01,2013-01-25 09:18:00,
2013-01-25 04:23:00,12.8,-1.1,30.37,West,276,2.0,2.0,53,0.00,,CLR,0.00,VWS V14.01,2013-01-25 09:23:00,
2013-01-25 04:28:00,12.6,-0.9,30.37,West,267,1.0,2.0,54,0.00,,CLR,0.00,VWS V14.01,2013-01-25 09:28:00,
2013-01-25 04:33:00,12.6,-0.9,30.37,NW,319,1.0,3.0,54,0.00,,,0.00,VWS V14.01,2013-01-25 09:33:00,
2013-01-25 04:38:00,12.6,-0.9,30.37,NNW,329,0.0,2.0,54,0.00,,,0.00,VWS V14.01,2013-01-25 09:38:00,
2013-01-25 04:44:00,12.6,-0.5,30.37,NW,314,0.0,6.0,55,0.00,,,0.00,VWS V14.01,2013-01-25 09:44:00,
2013-01-25 04:49:00,12.8,-0.7,30.37,WNW,288,2.0,4.0,54,0.00,,,0.00,VWS V14.01,2013-01-25 09:49:00,
2013-01-25 04:54:00,12.8,-0.7,30.37,West,267,1.0,2.0,54,0.00,,CLR,0.00,VWS V14.01,2013-01-25 09:54:00,
2013-01-25 04:59:00,12.6,-0.5,30.37,West,267,1.0,3.0,55,0.00,,CLR,0.00,VWS V14.01,2013-01-25 09:59:00,
2013-01-25 05:04:00,12.6,-0.5,30.37,West,271,0.0,0.0,55,0.00,,CLR,0.00,VWS V14.01,2013-01-25 10:04:00,
2013-01-25 05:09:00,12.6,-0.1,30.38,West,281,0.0,0.0,56,0.00,,CLR,0.00,VWS V14.01,2013-01-25 10:09:00,
2013-01-25 05:14:00,12.6,0.3,30.38,WNW,291,1.0,1.0,57,0.00,,CLR,0.00,VWS V14.01,2013-01-25 10:14:00,
2013-01-25 05:19:00,12.6,-0.1,30.38,SW,232,1.0,1.0,56,0.00,,CLR,0.00,VWS V14.01,2013-01-25 10:19:00,
2013-01-25 05:24:00,12.6,-0.1,30.38,WSW,249,0.0,2.0,56,0.00,,CLR,0.00,VWS V14.01,2013-01-25 10:24:00,
2013-01-25 05:29:00,12.6,0.3,30.38,WSW,249,0.0,0.0,57,0.00,,CLR,0.00,VWS V14.01,2013-01-25 10:29:00,
2013-01-25 05:34:00,12.6,0.3,30.38,WSW,250,0.0,0.0,57,0.00,,CLR,0.00,VWS V14.01,2013-01-25 10:34:00,
2013-01-25 05:39:00,12.6,0.6,30.36,WNW,283,5.0,5.0,58,0.00,,CLR,0.00,VWS V14.01,2013-01-25 10:39:00,
2013-01-25 05:44:00,12.6,0.3,30.36,NW,319,0.0,1.0,57,0.00,,CLR,0.00,VWS V14.01,2013-01-25 10:44:00,
2013-01-25 05:49:00,12.8,0.1,30.36,West,274,0.0,2.0,56,0.00,,CLR,0.00,VWS V14.01,2013-01-25 10:49:00,
2013-01-25 05:54:00,12.8,0.1,30.35,WNW,290,0.0,0.0,56,0.00,,CLR,0.00,VWS V14.01,2013-01-25 10:54:00,
2013-01-25 05:59:00,12.9,-0.2,30.35,North,358,0.0,2.0,55,0.00,,CLR,0.00,VWS V14.01,2013-01-25 10:59:00,
2013-01-25 06:04:00,12.9,-0.2,30.35,West,279,0.0,0.0,55,0.00,,CLR,0.00,VWS V14.01,2013-01-25 11:04:00,
2013-01-25 06:09:00,12.9,-0.2,30.35,West,278,0.0,1.0,55,0.00,,CLR,0.00,VWS V14.01,2013-01-25 11:09:00,
2013-01-25 06:14:00,12.9,-0.2,30.35,WNW,303,0.0,0.0,55,0.00,,CLR,0.00,VWS V14.01,2013-01-25 11:14:00,
2013-01-25 06:19:00,13.1,0.4,30.35,NNW,345,0.0,1.0,56,0.00,,CLR,0.00,VWS V14.01,2013-01-25 11:19:00,
2013-01-25 06:24:00,12.9,0.2,30.35,WNW,293,0.0,5.0,56,0.00,,CLR,0.00,VWS V14.01,2013-01-25 11:24:00,
2013-01-25 06:29:00,12.9,0.2,30.35,WNW,293,0.0,0.0,56,0.00,,CLR,0.00,VWS V14.01,2013-01-25 11:29:00,
2013-01-25 06:34:00,13.1,0.7,30.35,NW,318,0.0,1.0,57,0.00,,CLR,0.00,VWS V14.01,2013-01-25 11:34:00,
2013-01-25 06:39:00,12.9,0.6,30.34,NW,315,0.0,0.0,57,0.00,,CLR,0.00,VWS V14.01,2013-01-25 11:39:00,
2013-01-25 06:44:00,12.9,0.6,30.34,West,264,2.0,2.0,57,0.00,,CLR,0.00,VWS V14.01,2013-01-25 11:44:00,
2013-01-25 06:49:00,12.9,0.2,30.34,North,354,0.0,0.0,56,0.00,,CLR,0.00,VWS V14.01,2013-01-25 11:49:00,
2013-01-25 06:54:00,12.9,0.6,30.33,NW,312,0.0,0.0,57,0.00,,CLR,0.00,VWS V14.01,2013-01-25 11:54:00,
2013-01-25 06:59:00,13.1,0.4,30.33,WNW,297,0.0,2.0,56,0.00,,CLR,0.00,VWS V14.01,2013-01-25 11:59:00,
2013-01-25 07:04:00,13.1,0.7,30.33,NNW,329,0.0,0.0,57,0.00,,CLR,0.00,VWS V14.01,2013-01-25 12:04:00,
2013-01-25 07:09:00,13.1,0.7,30.34,NNW,339,0.0,2.0,57,0.00,,CLR,0.00,VWS V14.01,2013-01-25 12:09:00,
2013-01-25 07:14:00,13.3,0.6,30.34,WNW,288,0.0,4.0,56,0.00,,CLR,0.00,VWS V14.01,2013-01-25 12:14:00,
2013-01-25 07:19:00,13.3,0.6,30.34,WSW,256,1.0,6.0,56,0.00,,CLR,0.00,VWS V14.01,2013-01-25 12:19:00,
2013-01-25 07:24:00,13.3,0.2,30.35,WNW,299,0.0,0.0,55,0.00,,CLR,0.00,VWS V14.01,2013-01-25 12:24:00,
2013-01-25 07:29:00,13.5,0.7,30.35,West,280,2.0,4.0,56,0.00,,CLR,0.00,VWS V14.01,2013-01-25 12:29:00,
2013-01-25 07:34:00,13.5,0.7,30.35,WNW,296,6.0,6.0,56,0.00,,CLR,0.00,VWS V14.01,2013-01-25 12:34:00,
2013-01-25 07:39:00,13.5,0.7,30.34,NW,324,0.0,2.0,56,0.00,,CLR,0.00,VWS V14.01,2013-01-25 12:39:00,
2013-01-25 07:44:00,13.6,0.8,30.34,NW,314,4.0,4.0,56,0.00,,CLR,0.00,VWS V14.01,2013-01-25 12:44:00,
2013-01-25 07:49:00,13.6,0.8,30.34,NW,316,0.0,2.0,56,0.00,,CLR,0.00,VWS V14.01,2013-01-25 12:49:00,
2013-01-25 07:54:00,13.6,0.8,30.33,NW,305,3.0,4.0,56,0.00,,CLR,0.00,VWS V14.01,2013-01-25 12:54:00,
2013-01-25 07:59:00,13.6,0.4,30.33,WNW,293,0.0,4.0,55,0.00,,CLR,0.00,VWS V14.01,2013-01-25 12:59:00,
2013-01-25 08:04:00,13.8,1.4,30.33,NNW,338,0.0,1.0,57,0.00,,CLR,0.00,VWS V14.01,2013-01-25 13:04:00,
2013-01-25 08:09:00,14.0,1.2,30.35,West,269,2.0,5.0,56,0.00,,CLR,0.00,VWS V14.01,2013-01-25 13:09:00,
2013-01-25 08:14:00,14.0,1.6,30.35,NW,306,0.0,2.0,57,0.00,,CLR,0.00,VWS V14.01,2013-01-25 13:14:00,
2013-01-25 08:19:00,14.1,1.7,30.35,NNW,347,0.0,1.0,57,0.00,,CLR,0.00,VWS V14.01,2013-01-25 13:19:00,
2013-01-25 08:24:00,14.1,0.9,30.36,WNW,289,0.0,5.0,55,0.00,,CLR,0.00,VWS V14.01,2013-01-25 13:24:00,
2013-01-25 08:29:00,14.1,1.3,30.36,WNW,303,2.0,6.0,56,0.00,,CLR,0.00,VWS V14.01,2013-01-25 13:29:00,
2013-01-25 08:34:00,14.1,1.3,30.36,WNW,291,0.0,0.0,56,0.00,,CLR,0.00,VWS V14.01,2013-01-25 13:34:00,
2013-01-25 08:39:00,14.3,1.5,30.36,WNW,298,0.0,2.0,56,0.00,,CLR,0.00,VWS V14.01,2013-01-25 13:39:00,
2013-01-25 08:44:00,14.3,1.5,30.36,NNW,330,0.0,5.0,56,0.00,,CLR,0.00,VWS V14.01,2013-01-25 13:44:00,
2013-01-25 08:49:00,14.4,1.6,30.36,WNW,292,0.0,2.0,56,0.00,,CLR,0.00,VWS V14.01,2013-01-25 13:49:00,
2013-01-25 08:54:00,14.4,1.2,30.35,West,276,2.0,5.0,55,0.00,,CLR,0.00,VWS V14.01,2013-01-25 13:54:00,
2013-01-25 08:59:00,14.6,1.8,30.35,WNW,302,1.0,2.0,56,0.00,,CLR,0.00,VWS V14.01,2013-01-25 13:59:00,
2013-01-25 09:04:00,14.6,1.8,30.35,WNW,302,0.0,0.0,56,0.00,,CLR,0.00,VWS V14.01,2013-01-25 14:04:00,
2013-01-25 09:09:00,14.8,1.6,30.35,WNW,300,0.0,3.0,55,0.00,,CLR,0.00,VWS V14.01,2013-01-25 14:09:00,
2013-01-25 09:14:00,14.9,2.0,30.35,WNW,302,0.0,4.0,56,0.00,,CLR,0.00,VWS V14.01,2013-01-25 14:14:00,
2013-01-25 09:19:00,15.1,1.9,30.35,WNW,298,2.0,4.0,55,0.00,,CLR,0.00,VWS V14.01,2013-01-25 14:19:00,
2013-01-25 09:24:00,14.9,1.3,30.35,NW,305,0.0,4.0,54,0.00,,CLR,0.00,VWS V14.01,2013-01-25 14:24:00,
2013-01-25 09:29:00,15.2,2.0,30.35,West,271,2.0,4.0,55,0.00,,CLR,0.00,VWS V14.01,2013-01-25 14:29:00,
2013-01-25 09:34:00,15.4,2.1,30.35,WSW,257,2.0,2.0,55,0.00,,CLR,0.00,VWS V14.01,2013-01-25 14:34:00,
2013-01-25 09:39:00,15.4,1.7,30.34,WNW,293,0.0,2.0,54,0.00,,CLR,0.00,VWS V14.01,2013-01-25 14:39:00,
2013-01-25 09:44:00,15.6,1.9,30.34,West,278,0.0,4.0,54,0.00,,CLR,0.00,VWS V14.01,2013-01-25 14:44:00,
2013-01-25 09:49:00,15.6,1.5,30.34,NW,321,0.0,1.0,53,0.00,,CLR,0.00,VWS V14.01,2013-01-25 14:49:00,
2013-01-25 09:54:00,15.6,1.9,30.33,NNW,348,0.0,0.0,54,0.00,,CLR,0.00,VWS V14.01,2013-01-25 14:54:00,
2013-01-25 09:59:00,15.9,2.2,30.33,WNW,297,0.0,1.0,54,0.00,,CLR,0.00,VWS V14.01,2013-01-25 14:59:00,
2013-01-25 10:04:00,16.2,2.5,30.33,NW,317,0.0,1.0,54,0.00,,CLR,0.00,VWS V14.01,2013-01-25 15:04:00,
2013-01-25 10:09:00,16.2,2.1,30.33,WNW,282,0.0,4.0,53,0.00,,CLR,0.00,VWS V14.01,2013-01-25 15:09:00,
2013-01-25 10:14:00,16.1,1.6,30.33,WNW,299,2.0,2.0,52,0.00,,CLR,0.00,VWS V14.01,2013-01-25 15:14:00,
2013-01-25 10:19:00,16.2,2.1,30.33,NW,305,0.0,0.0,53,0.00,,CLR,0.00,VWS V14.01,2013-01-25 15:19:00,
2013-01-25 10:24:00,16.4,1.9,30.33,NW,305,0.0,0.0,52,0.00,,CLR,0.00,VWS V14.01,2013-01-25 15:24:00,
2013-01-25 10:29:00,16.4,1.9,30.33,NW,305,0.0,1.0,52,0.00,,CLR,0.00,VWS V14.01,2013-01-25 15:29:00,
2013-01-25 10:34:00,16.4,1.9,30.33,NW,323,2.0,2.0,52,0.00,,CLR,0.00,VWS V14.01,2013-01-25 15:34:00,
2013-01-25 10:39:00,16.4,2.3,30.31,NNW,333,0.0,0.0,53,0.00,,CLR,0.00,VWS V14.01,2013-01-25 15:39:00,
2013-01-25 10:44:00,16.5,2.0,30.31,NNW,335,0.0,1.0,52,0.00,,CLR,0.00,VWS V14.01,2013-01-25 15:44:00,
2013-01-25 10:49:00,16.7,2.1,30.31,NW,309,0.0,0.0,52,0.00,,CLR,0.00,VWS V14.01,2013-01-25 15:49:00,
2013-01-25 10:54:00,16.9,1.9,30.30,NE,48,0.0,0.0,51,0.00,,CLR,0.00,VWS V14.01,2013-01-25 15:54:00,
2013-01-25 10:59:00,17.2,2.2,30.30,NE,48,0.0,0.0,51,0.00,,CLR,0.00,VWS V14.01,2013-01-25 15:59:00,
2013-01-25 11:04:00,17.3,2.3,30.30,NE,49,0.0,1.0,51,0.00,,CLR,0.00,VWS V14.01,2013-01-25 16:04:00,
2013-01-25 11:09:00,17.5,2.0,30.28,NE,51,0.0,1.0,50,0.00,,CLR,0.00,VWS V14.01,2013-01-25 16:09:00,
2013-01-25 11:14:00,17.7,2.2,30.28,NE,46,0.0,0.0,50,0.00,,CLR,0.00,VWS V14.01,2013-01-25 16:14:00,
2013-01-25 11:19:00,17.8,2.3,30.28,NE,46,0.0,0.0,50,0.00,,CLR,0.00,VWS V14.01,2013-01-25 16:19:00,
2013-01-25 11:24:00,18.0,2.5,30.27,NNE,32,0.0,0.0,50,0.00,,CLR,0.00,VWS V14.01,2013-01-25 16:24:00,
2013-01-25 11:29:00,18.1,2.2,30.27,North,0,0.0,1.0,49,0.00,,CLR,0.00,VWS V14.01,2013-01-25 16:29:00,
2013-01-25 11:34:00,18.1,1.7,30.27,NE,55,0.0,0.0,48,0.00,,CLR,0.00,VWS V14.01,2013-01-25 16:34:00,
2013-01-25 11:39:00,18.3,1.9,30.27,NE,55,0.0,0.0,48,0.00,,CLR,0.00,VWS V14.01,2013-01-25 16:39:00,
2013-01-25 11:44:00,18.6,2.2,30.27,North,3,0.0,1.0,48,0.00,,CLR,0.00,VWS V14.01,2013-01-25 16:44:00,
2013-01-25 11:49:00,18.4,2.0,30.27,WSW,252,1.0,5.0,48,0.00,,CLR,0.00,VWS V14.01,2013-01-25 16:49:00,
2013-01-25 11:54:00,18.6,3.1,30.27,West,276,0.0,2.0,50,0.00,,BKN100,0.00,VWS V14.01,2013-01-25 16:54:00,
2013-01-25 11:59:00,18.8,2.4,30.27,West,281,0.0,2.0,48,0.00,,BKN100,0.00,VWS V14.01,2013-01-25 16:59:00,
2013-01-25 12:04:00,19.1,3.1,30.27,WNW,299,0.0,4.0,49,0.00,,BKN100,0.00,VWS V14.01,2013-01-25 17:04:00,
2013-01-25 12:09:00,19.1,2.7,30.25,NW,326,2.0,2.0,48,0.00,,BKN100,0.00,VWS V14.01,2013-01-25 17:09:00,
2013-01-25 12:14:00,19.1,2.7,30.25,West,260,0.0,2.0,48,0.00,,BKN100,0.00,VWS V14.01,2013-01-25 17:14:00,
2013-01-25 12:19:00,19.1,2.7,30.25,WSW,254,0.0,6.0,48,0.00,,BKN100,0.00,VWS V14.01,2013-01-25 17:19:00,
2013-01-25 12:24:00,18.9,2.9,30.25,West,274,4.0,4.0,49,0.00,,BKN100,0.00,VWS V14.01,2013-01-25 17:24:00,
2013-01-25 12:29:00,19.1,3.1,30.25,NW,314,0.0,2.0,49,0.00,,BKN100,0.00,VWS V14.01,2013-01-25 17:29:00,
2013-01-25 12:34:00,19.1,2.2,30.25,West,262,0.0,0.0,47,0.00,,BKN100,0.00,VWS V14.01,2013-01-25 17:34:00,
2013-01-25 12:39:00,19.2,2.7,30.23,West,267,1.0,5.0,48,0.00,,OVC090,0.00,VWS V14.01,2013-01-25 17:39:00,
2013-01-25 12:44:00,19.4,2.9,30.23,West,269,1.0,4.0,48,0.00,,OVC090,0.00,VWS V14.01,2013-01-25 17:44:00,
2013-01-25 12:49:00,19.5,3.0,30.23,SW,222,0.0,0.0,48,0.00,,OVC090,0.00,VWS V14.01,2013-01-25 17:49:00,
2013-01-25 12:54:00,19.5,2.6,30.22,West,281,0.0,2.0,47,0.00,,BKN090,0.00,VWS V14.01,2013-01-25 17:54:00,
2013-01-25 12:59:00,19.7,3.2,30.22,NNW,330,0.0,1.0,48,0.00,,BKN090,0.00,VWS V14.01,2013-01-25 17:59:00,
2013-01-25 13:04:00,20.0,3.5,30.22,West,265,5.0,6.0,48,0.00,,BKN090,0.00,VWS V14.01,2013-01-25 18:04:00,
2013-01-25 13:09:00,19.9,2.9,30.20,West,276,0.0,6.0,47,0.00,,OVC100,0.00,VWS V14.01,2013-01-25 18:09:00,
2013-01-25 13:14:00,20.0,3.5,30.20,WNW,297,1.0,4.0,48,0.00,,BKN090,0.00,VWS V14.01,2013-01-25 18:14:00,
2013-01-25 13:19:00,20.0,3.0,30.20,WNW,284,0.0,4.0,47,0.00,,BKN090,0.00,VWS V14.01,2013-01-25 18:19:00,
2013-01-25 13:24:00,20.0,2.6,30.20,WNW,293,0.0,0.0,46,0.00,,BKN090,0.00,VWS V14.01,2013-01-25 18:24:00,
2013-01-25 13:29:00,20.3,3.3,30.20,WSW,252,0.0,3.0,47,0.00,,BKN090,0.00,VWS V14.01,2013-01-25 18:29:00,
2013-01-25 13:34:00,20.5,2.5,30.20,West,264,0.0,1.0,45,0.00,,OVC090,0.00,VWS V14.01,2013-01-25 18:34:00,
2013-01-25 13:39:00,20.5,3.0,30.19,West,264,2.0,4.0,46,0.00,,OVC090,0.00,VWS V14.01,2013-01-25 18:39:00,
2013-01-25 13:44:00,20.3,2.4,30.19,SW,225,2.0,2.0,45,0.00,,OVC090,0.00,VWS V14.01,2013-01-25 18:44:00,
2013-01-25 13:49:00,20.2,2.3,30.19,SW,234,2.0,3.0,45,0.00,,OVC090,0.00,VWS V14.01,2013-01-25 18:49:00,
2013-01-25 13:54:00,20.2,2.3,30.18,SSW,195,0.0,2.0,45,0.00,,OVC090,0.00,VWS V14.01,2013-01-25 18:54:00,
2013-01-25 13:59:00,20.3,2.4,30.18,WSW,245,0.0,4.0,45,0.00,,OVC090,0.00,VWS V14.01,2013-01-25 18:59:00,
2013-01-25 14:04:00,20.3,2.4,30.18,WSW,253,0.0,0.0,45,0.00,,OVC090,0.00,VWS V14.01,2013-01-25 19:04:00,
2013-01-25 14:09:00,20.3,1.4,30.16,WSW,250,0.0,0.0,43,0.00,,BKN100,0.00,VWS V14.01,2013-01-25 19:09:00,
2013-01-25 14:14:00,20.5,2.1,30.16,WSW,249,0.0,0.0,44,0.00,,OVC090,0.00,VWS V14.01,2013-01-25 19:14:00,
2013-01-25 14:19:00,20.6,2.6,30.16,SW,220,0.0,0.0,45,0.00,,OVC090,0.00,VWS V14.01,2013-01-25 19:19:00,
2013-01-25 14:24:00,20.6,2.6,30.15,WSW,247,0.0,0.0,45,0.00,,OVC090,0.00,VWS V14.01,2013-01-25 19:24:00,
2013-01-25 14:29:00,20.6,2.6,30.15,WSW,237,0.0,2.0,45,0.00,,OVC090,0.00,VWS V14.01,2013-01-25 19:29:00,
2013-01-25 14:34:00,20.8,2.8,30.15,WSW,237,0.0,0.0,45,0.00,,BKN075,0.00,VWS V14.01,2013-01-25 19:34:00,
2013-01-25 14:39:00,21.0,3.5,30.15,SW,229,0.0,0.0,46,0.00,,BKN075,0.00,VWS V14.01,2013-01-25 19:39:00,
2013-01-25 14:44:00,21.1,1.1,30.15,South,181,0.0,2.0,41,0.00,,BKN075,0.00,VWS V14.01,2013-01-25 19:44:00,
2013-01-25 14:49:00,21.3,0.8,30.15,SW,221,2.0,5.0,40,0.00,,BKN075,0.00,VWS V14.01,2013-01-25 19:49:00,
2013-01-25 14:54:00,21.3,1.8,30.14,SSW,200,1.0,4.0,42,0.00,,OVC060,0.00,VWS V14.01,2013-01-25 19:54:00,
2013-01-25 14:59:00,21.1,1.1,30.14,SSW,198,0.0,2.0,41,0.00,,OVC060,0.00,VWS V14.01,2013-01-25 19:59:00,
2013-01-25 15:04:00,21.1,1.1,30.14,SW,231,0.0,2.0,41,0.00,,OVC060,0.00,VWS V14.01,2013-01-25 20:04:00,
2013-01-25 15:09:00,21.1,2.1,30.14,SW,229,0.0,0.0,43,0.00,,BKN075,0.00,VWS V14.01,2013-01-25 20:09:00,
2013-01-25 15:14:00,21.1,3.1,30.14,West,279,2.0,5.0,45,0.00,,OVC060,0.00,VWS V14.01,2013-01-25 20:14:00,
2013-01-25 15:19:00,20.8,4.7,30.14,SW,222,5.0,7.0,49,0.00,,OVC060,0.00,VWS V14.01,2013-01-25 20:19:00,
2013-01-25 15:24:00,20.5,6.9,30.14,SSW,193,3.0,5.0,55,0.00,,OVC060,0.00,VWS V14.01,2013-01-25 20:24:00,
2013-01-25 15:29:00,20.0,7.6,30.14,SSW,209,1.0,4.0,58,0.00,,OVC060,0.00,VWS V14.01,2013-01-25 20:29:00,
2013-01-25 15:34:00,19.9,8.6,30.14,South,181,0.0,6.0,61,0.00,,OVC060,0.00,VWS V14.01,2013-01-25 20:34:00,
2013-01-25 15:39:00,19.5,9.0,30.13,South,172,6.0,7.0,63,0.00,,OVC050,0.00,VWS V14.01,2013-01-25 20:39:00,
2013-01-25 15:44:00,19.5,9.3,30.13,South,184,0.0,3.0,64,0.00,,OVC050,0.00,VWS V14.01,2013-01-25 20:44:00,
2013-01-25 15:49:00,19.5,9.7,30.13,SSW,205,3.0,4.0,65,0.00,,OVC050,0.00,VWS V14.01,2013-01-25 20:49:00,
2013-01-25 15:54:00,19.5,10.3,30.13,SSW,203,0.0,1.0,67,0.00,,OVC042,0.00,VWS V14.01,2013-01-25 20:54:00,
2013-01-25 15:59:00,19.4,10.6,30.13,SSW,192,0.0,3.0,68,0.00,,OVC042,0.00,VWS V14.01,2013-01-25 20:59:00,
2013-01-25 16:04:00,19.1,10.9,30.13,West,260,0.0,1.0,70,0.00,,BKN050,0.00,VWS V14.01,2013-01-25 21:04:00,
2013-01-25 16:09:00,19.1,11.6,30.12,SSE,149,1.0,2.0,72,0.00,,BKN050,0.00,VWS V14.01,2013-01-25 21:09:00,
2013-01-25 16:14:00,19.1,11.9,30.12,SSE,149,0.0,2.0,73,0.00,,OVC042,0.00,VWS V14.01,2013-01-25 21:14:00,
2013-01-25 16:19:00,18.9,12.0,30.12,South,191,0.0,4.0,74,0.00,,OVC042,0.00,VWS V14.01,2013-01-25 21:19:00,
2013-01-25 16:24:00,18.6,12.0,30.10,SW,215,0.0,3.0,75,0.00,,OVC042,0.00,VWS V14.01,2013-01-25 21:24:00,
2013-01-25 16:29:00,18.6,12.3,30.10,South,187,3.0,3.0,76,0.00,,OVC042,0.00,VWS V14.01,2013-01-25 21:29:00,
2013-01-25 16:34:00,18.4,12.4,30.10,South,176,1.0,1.0,77,0.00,,OVC015,0.00,VWS V14.01,2013-01-25 21:34:00,
2013-01-25 16:39:00,18.4,13.0,30.10,SSW,200,0.0,4.0,79,0.00,,OVC015,0.00,VWS V14.01,2013-01-25 21:39:00,
2013-01-25 16:44:00,18.3,12.9,30.10,SW,215,0.0,1.0,79,0.00,,OVC015,0.00,VWS V14.01,2013-01-25 21:44:00,
2013-01-25 16:49:00,18.1,13.0,30.10,WSW,246,0.0,3.0,80,0.00,,OVC015,0.00,VWS V14.01,2013-01-25 21:49:00,
2013-01-25 16:54:00,18.1,13.3,30.10,WSW,241,1.0,1.0,81,0.00,,OVC010,0.00,VWS V14.01,2013-01-25 21:54:00,
2013-01-25 16:59:00,18.0,13.2,30.10,SSW,195,0.0,2.0,81,0.00,,OVC010,0.00,VWS V14.01,2013-01-25 21:59:00,
2013-01-25 17:04:00,18.0,13.4,30.10,SSW,195,0.0,0.0,82,0.00,,OVC010,0.00,VWS V14.01,2013-01-25 22:04:00,
2013-01-25 17:09:00,18.0,13.4,30.08,SSW,193,0.0,0.0,82,0.00,,OVC010,0.00,VWS V14.01,2013-01-25 22:09:00,
2013-01-25 17:14:00,17.8,13.2,30.08,SSW,193,0.0,0.0,82,0.00,,OVC010,0.00,VWS V14.01,2013-01-25 22:14:00,
2013-01-25 17:20:00,17.8,13.2,30.08,South,189,0.0,4.0,82,0.00,,OVC010,0.00,VWS V14.01,2013-01-25 22:20:00,
2013-01-25 17:25:00,17.7,13.1,30.08,SSW,205,0.0,2.0,82,0.00,,OVC010,0.00,VWS V14.01,2013-01-25 22:25:00,
2013-01-25 17:30:00,17.7,13.1,30.08,SSW,210,0.0,1.0,82,0.00,,OVC010,0.00,VWS V14.01,2013-01-25 22:30:00,
2013-01-25 17:35:00,17.7,13.4,30.08,SSW,212,0.0,2.0,83,0.00,,OVC001,0.00,VWS V14.01,2013-01-25 22:35:00,
2013-01-25 17:40:00,17.5,13.2,30.07,SSW,211,0.0,1.0,83,0.00,,OVC001,0.00,VWS V14.01,2013-01-25 22:40:00,
2013-01-25 17:45:00,17.5,13.2,30.07,SSW,211,0.0,1.0,83,0.00,,OVC001,0.00,VWS V14.01,2013-01-25 22:45:00,
2013-01-25 17:50:00,17.5,13.2,30.07,SW,214,0.0,1.0,83,0.00,,OVC001,0.00,VWS V14.01,2013-01-25 22:50:00,
2013-01-25 17:55:00,17.3,13.0,30.07,SW,214,0.0,2.0,83,0.00,,OVC010,0.00,VWS V14.01,2013-01-25 22:55:00,
2013-01-25 18:00:00,17.3,13.0,30.07,SW,214,0.0,2.0,83,0.00,,OVC010,0.00,VWS V14.01,2013-01-25 23:00:00,
2013-01-25 18:05:00,17.3,13.0,30.07,SSW,194,0.0,5.0,83,0.00,,OVC010,0.00,VWS V14.01,2013-01-25 23:05:00,
2013-01-25 18:10:00,17.2,12.9,30.07,SSW,194,0.0,2.0,83,0.00,,OVC010,0.00,VWS V14.01,2013-01-25 23:10:00,
2013-01-25 18:15:00,17.2,12.9,30.07,SSW,195,0.0,1.0,83,0.00,,OVC010,0.00,VWS V14.01,2013-01-25 23:15:00,
2013-01-25 18:20:00,17.2,12.9,30.07,SSW,195,0.0,0.0,83,0.00,,OVC010,0.00,VWS V14.01,2013-01-25 23:20:00,
2013-01-25 18:25:00,17.2,12.9,30.07,SSW,195,1.0,1.0,83,0.00,,OVC010,0.00,VWS V14.01,2013-01-25 23:25:00,
2013-01-25 18:30:00,17.2,12.9,30.07,SSW,195,0.0,0.0,83,0.00,,OVC010,0.00,VWS V14.01,2013-01-25 23:30:00,
2013-01-25 18:35:00,17.2,12.9,30.07,SSW,195,0.0,2.0,83,0.00,,OVC009,0.00,VWS V14.01,2013-01-25 23:35:00,
2013-01-25 18:40:00,17.2,12.9,30.06,SSW,195,0.0,0.0,83,0.00,,OVC009,0.00,VWS V14.01,2013-01-25 23:40:00,
2013-01-25 18:45:00,17.0,12.7,30.06,SSW,200,0.0,0.0,83,0.00,,OVC009,0.00,VWS V14.01,2013-01-25 23:45:00,
2013-01-25 18:50:00,17.0,12.7,30.06,SSW,200,1.0,1.0,83,0.00,,OVC009,0.00,VWS V14.01,2013-01-25 23:50:00,
2013-01-25 18:55:00,17.0,12.7,30.06,SSW,200,0.0,0.0,83,0.00,,OVC008,0.00,VWS V14.01,2013-01-25 23:55:00,
2013-01-25 19:00:00,17.0,12.7,30.06,SSW,200,1.0,2.0,83,0.00,,OVC008,0.00,VWS V14.01,2013-01-26 00:00:00,
2013-01-25 19:05:00,17.0,12.7,30.06,SSW,200,0.0,0.0,83,0.00,,OVC008,0.00,VWS V14.01,2013-01-26 00:05:00,
2013-01-25 19:10:00,17.0,12.7,30.05,South,181,0.0,0.0,83,0.00,,OVC008,0.00,VWS V14.01,2013-01-26 00:10:00,
2013-01-25 19:15:00,16.9,12.6,30.05,South,181,0.0,0.0,83,0.00,,OVC010,0.00,VWS V14.01,2013-01-26 00:15:00,
2013-01-25 19:20:00,16.9,12.6,30.05,South,181,0.0,0.0,83,0.00,,OVC010,0.00,VWS V14.01,2013-01-26 00:20:00,
2013-01-25 19:25:00,16.9,12.6,30.05,South,181,0.0,0.0,83,0.00,,OVC010,0.00,VWS V14.01,2013-01-26 00:25:00,
2013-01-25 19:30:00,16.9,12.6,30.05,South,181,0.0,0.0,83,0.00,,OVC010,0.00,VWS V14.01,2013-01-26 00:30:00,
2013-01-25 19:35:00,16.7,12.4,30.05,South,181,0.0,0.0,83,0.00,,BKN021,0.00,VWS V14.01,2013-01-26 00:35:00,
2013-01-25 19:40:00,16.5,12.2,30.05,South,181,0.0,0.0,83,0.00,,BKN021,0.00,VWS V14.01,2013-01-26 00:40:00,
2013-01-25 19:45:00,16.4,12.1,30.05,South,181,0.0,0.0,83,0.00,,BKN021,0.00,VWS V14.01,2013-01-26 00:45:00,
2013-01-25 19:50:00,16.2,12.0,30.05,South,181,0.0,0.0,83,0.00,,BKN021,0.00,VWS V14.01,2013-01-26 00:50:00,
2013-01-25 19:55:00,16.1,11.9,30.04,South,181,0.0,0.0,83,0.00,,BKN024,0.00,VWS V14.01,2013-01-26 00:55:00,
2013-01-25 20:00:00,15.9,11.7,30.04,South,181,0.0,0.0,83,0.00,,BKN024,0.00,VWS V14.01,2013-01-26 01:00:00,
2013-01-25 20:05:00,15.6,11.4,30.04,South,181,0.0,0.0,83,0.00,,BKN024,0.00,VWS V14.01,2013-01-26 01:05:00,
2013-01-25 20:10:00,15.2,11.0,30.05,South,181,0.0,0.0,83,0.00,,BKN024,0.00,VWS V14.01,2013-01-26 01:10:00,
2013-01-25 20:15:00,14.9,10.7,30.05,South,181,0.0,0.0,83,0.00,,BKN024,0.00,VWS V14.01,2013-01-26 01:15:00,
2013-01-25 20:20:00,14.4,10.2,30.05,South,181,0.0,0.0,83,0.00,,BKN024,0.00,VWS V14.01,2013-01-26 01:20:00,
2013-01-25 20:25:00,14.1,9.9,30.03,South,181,0.0,0.0,83,0.00,,BKN024,0.00,VWS V14.01,2013-01-26 01:25:00,
2013-01-25 20:30:00,13.6,9.4,30.03,South,181,0.0,0.0,83,0.00,,BKN024,0.00,VWS V14.01,2013-01-26 01:30:00,
2013-01-25 20:35:00,13.3,9.1,30.03,South,181,0.0,0.0,83,0.00,,OVC025,0.00,VWS V14.01,2013-01-26 01:35:00,
2013-01-25 20:40:00,13.1,9.2,30.02,South,181,0.0,0.0,84,0.00,,OVC025,0.00,VWS V14.01,2013-01-26 01:40:00,
2013-01-25 20:45:00,13.3,9.4,30.02,South,181,0.0,0.0,84,0.00,,OVC025,0.00,VWS V14.01,2013-01-26 01:45:00,
2013-01-25 20:50:00,13.5,9.8,30.02,South,181,0.0,0.0,85,0.00,,OVC025,0.00,VWS V14.01,2013-01-26 01:50:00,
2013-01-25 20:55:00,13.3,9.6,30.02,South,181,0.0,0.0,85,0.00,,OVC024,0.00,VWS V14.01,2013-01-26 01:55:00,
2013-01-25 21:00:00,13.1,9.4,30.02,South,181,0.0,0.0,85,0.00,,OVC024,0.00,VWS V14.01,2013-01-26 02:00:00,
2013-01-25 21:05:00,12.9,9.2,30.02,South,181,0.0,0.0,85,0.00,,OVC024,0.00,VWS V14.01,2013-01-26 02:05:00,
2013-01-25 21:10:00,12.8,9.1,30.02,South,181,0.0,0.0,85,0.00,,OVC024,0.00,VWS V14.01,2013-01-26 02:10:00,
2013-01-25 21:15:00,12.4,8.8,30.02,South,181,0.0,0.0,85,0.00,,OVC024,0.00,VWS V14.01,2013-01-26 02:15:00,
2013-01-25 21:20:00,12.3,8.7,30.02,South,181,0.0,0.0,85,0.00,,OVC024,0.00,VWS V14.01,2013-01-26 02:20:00,
2013-01-25 21:25:00,12.1,8.5,30.01,South,181,0.0,0.0,85,0.00,,OVC024,0.00,VWS V14.01,2013-01-26 02:25:00,
2013-01-25 21:30:00,11.9,8.3,30.01,South,181,0.0,0.0,85,0.00,,OVC024,0.00,VWS V14.01,2013-01-26 02:30:00,
2013-01-25 21:35:00,11.4,7.8,30.01,South,181,0.0,0.0,85,0.00,,BKN022,0.00,VWS V14.01,2013-01-26 02:35:00,
2013-01-25 21:40:00,11.1,7.5,30.01,South,181,0.0,0.0,85,0.00,,BKN022,0.00,VWS V14.01,2013-01-26 02:40:00,
2013-01-25 21:45:00,10.5,6.6,30.01,South,181,0.0,0.0,84,0.00,,BKN022,0.00,VWS V14.01,2013-01-26 02:45:00,
2013-01-25 21:50:00,10.2,6.3,30.01,South,181,0.0,0.0,84,0.00,,BKN022,0.00,VWS V14.01,2013-01-26 02:50:00,
2013-01-25 21:55:00,9.9,6.0,30.01,South,181,0.0,0.0,84,0.00,,FEW022,0.00,VWS V14.01,2013-01-26 02:55:00,
2013-01-25 22:00:00,9.7,5.8,30.01,South,181,0.0,0.0,84,0.00,,FEW022,0.00,VWS V14.01,2013-01-26 03:00:00,
2013-01-25 22:05:00,9.5,5.7,30.01,South,181,0.0,0.0,84,0.00,,FEW022,0.00,VWS V14.01,2013-01-26 03:05:00,
2013-01-25 22:10:00,9.5,5.7,30.00,South,181,0.0,0.0,84,0.00,,FEW022,0.00,VWS V14.01,2013-01-26 03:10:00,
2013-01-25 22:15:00,9.3,5.4,30.00,South,181,0.0,0.0,84,0.00,,FEW022,0.00,VWS V14.01,2013-01-26 03:15:00,
2013-01-25 22:20:00,9.3,5.4,30.00,South,181,0.0,0.0,84,0.00,,FEW022,0.00,VWS V14.01,2013-01-26 03:20:00,
2013-01-25 22:25:00,9.2,5.4,30.00,South,181,0.0,0.0,84,0.00,,FEW022,0.00,VWS V14.01,2013-01-26 03:25:00,
2013-01-25 22:30:00,8.6,4.8,30.00,South,181,0.0,0.0,84,0.00,,FEW022,0.00,VWS V14.01,2013-01-26 03:30:00,
2013-01-25 22:35:00,8.3,4.5,30.00,South,181,0.0,0.0,84,0.00,,OVC034,0.00,VWS V14.01,2013-01-26 03:35:00,
2013-01-25 22:40:00,8.1,4.3,30.00,South,181,0.0,0.0,84,0.00,,OVC034,0.00,VWS V14.01,2013-01-26 03:40:00,
2013-01-25 22:45:00,7.9,4.1,30.00,South,181,0.0,0.0,84,0.00,,OVC034,0.00,VWS V14.01,2013-01-26 03:45:00,
2013-01-25 22:50:00,7.7,3.9,30.00,South,181,0.0,0.0,84,0.00,,OVC034,0.00,VWS V14.01,2013-01-26 03:50:00,
2013-01-25 22:55:00,7.7,3.9,30.00,South,181,0.0,0.0,84,0.00,,OVC019,0.00,VWS V14.01,2013-01-26 03:55:00,
2013-01-25 23:00:00,7.9,4.1,30.00,South,181,0.0,0.0,84,0.00,,OVC019,0.00,VWS V14.01,2013-01-26 04:00:00,
2013-01-25 23:05:00,7.9,4.1,30.00,South,181,0.0,0.0,84,0.00,,OVC019,0.00,VWS V14.01,2013-01-26 04:05:00,
2013-01-25 23:10:00,8.1,4.3,30.00,South,181,0.0,0.0,84,0.00,,OVC019,0.00,VWS V14.01,2013-01-26 04:10:00,
2013-01-25 23:15:00,8.4,4.6,30.00,South,181,0.0,0.0,84,0.00,,OVC019,0.00,VWS V14.01,2013-01-26 04:15:00,
2013-01-25 23:20:00,8.8,5.0,30.00,South,181,0.0,0.0,84,0.00,,OVC019,0.00,VWS V14.01,2013-01-26 04:20:00,
2013-01-25 23:25:00,9.2,5.4,30.00,South,181,0.0,0.0,84,0.00,,OVC019,0.00,VWS V14.01,2013-01-26 04:25:00,
2013-01-25 23:30:00,9.2,5.4,30.00,South,181,0.0,0.0,84,0.00,,OVC019,0.00,VWS V14.01,2013-01-26 04:30:00,
2013-01-25 23:35:00,9.2,5.4,30.00,South,181,0.0,0.0,84,0.00,,CLR,0.00,VWS V14.01,2013-01-26 04:35:00,
2013-01-25 23:40:00,9.0,5.2,30.00,South,181,0.0,0.0,84,0.00,,CLR,0.00,VWS V14.01,2013-01-26 04:40:00,
2013-01-25 23:45:00,9.0,5.2,30.00,South,181,0.0,0.0,84,0.00,,CLR,0.00,VWS V14.01,2013-01-26 04:45:00,
2013-01-25 23:50:00,8.8,5.0,30.00,South,181,0.0,0.0,84,0.00,,CLR,0.00,VWS V14.01,2013-01-26 04:50:00,
2013-01-25 23:55:00,8.4,4.3,30.00,South,181,0.0,0.0,83,0.00,,FEW024,0.00,VWS V14.01,2013-01-26 04:55:00,